Location: Doazon
(43.4500°N, 0.5500°W)
Time: 15:20:11
(UTC+00:00)

COSMO-SKYMED 1 - Pass Details

Date: 05 December 2025
Orbit: 578 x 580 km, 97.9° (Epoch: 19 January)

Event Time Altitude Azimuth Distance (km) Brightness Sun altitude
Exits shadow 18:55:26 46° 316° (NW) 790 3.2 -26.3°
Maximum altitude 18:56:00 50° 288° (WNW) 748 3.2 -26.4°
Drops below altitude 10° 18:59:58 10° 213° (SSW) 1,890 5.5 -27.1°
Sets 19:02:08 0° 208° (SSW) 2,784 6.3 -27.5°
